軌道要素
Epoch 2024 Mar. 31.0 TT = JDT 2460400.5
T 2023 Feb. 9.28755 TT Rudenko
q 3.3697690 (2000.0) P Q
z -0.0005777 Peri. 21.00601 -0.73117862 -0.60715595
+/-0.0000006 Node 117.70646 +0.56504328 -0.79447613
e 1.0019467 Incl. 20.56749 +0.38223542 +0.01301277
>From 1867 observations 2020 Sept. 16-2024 Feb. 14, mean residual 0".8.
|